Regional Weather Roundup
Issued by NWS

Home | Current Version | Previous Version | Text Only | Print | Product List | Glossary On
Versions: 1 2 3 4 5 6 7 8 9 10 11 12 13 14 15 16 17 18 19 20 21 22 23 24 25 26 27 28 29 30 31 32 33 34 35 36 37 38 39 40 41 42 43 44 45 46 47 48 49 50
000
ASUS43 KFSD 221510
RWRSD

WEATHER ROUNDUP FOR SOUTH DAKOTA
NATIONAL WEATHER SERVICE SIOUX FALLS SD
1000 AM CDT MON SEP 22 2014

NOTE: "FAIR" INDICATES FEW OR NO CLOUDS BELOW 12,000 FEET WITH NO
SIGNIFICANT WEATHER AND/OR OBSTRUCTIONS TO VISIBILITY.


SDZ001>005-009-010-012>017-221600-
NORTHWEST AND NORTH CENTRAL SOUTH DAKOTA

CITY           SKY/WX    TMP DP  RH WIND       PRES   REMARKS
BUFFALO          N/A     57  41  55 SE7       29.98F
FAITH            N/A     59  43  55 SE15      30.08F
MOBRIDGE       SUNNY     59  50  72 SE14      30.11F
$$

SDZ012>016-024>037-041>051-057-063-072>074-221600-
SOUTHWEST AND SOUTH CENTRAL SOUTH DAKOTA

CITY           SKY/WX    TMP DP  RH WIND       PRES   REMARKS
RAPID CTY ARPT CLOUDY    59  42  53 S16       30.08F
PIERRE         SUNNY     61  45  55 SE14      30.14F
CUSTER         MOSUNNY   59  41  51 S7        30.17S
ELLSWORTH AFB  CLOUDY    59  43  55 S17       30.06F
PHILIP         CLOUDY    64  44  48 SE5       30.10F
PINE RIDGE     PTSUNNY   66  43  43 S21G28    30.11F
WINNER         FAIR      64  46  52 S22G29    30.19S
$$

SDZ004>011-016>023-039-040-221600-
NORTHEAST SOUTH DAKOTA

CITY           SKY/WX    TMP DP  RH WIND       PRES   REMARKS
ABERDEEN       SUNNY     56  48  74 S5        30.21S
WATERTOWN      SUNNY     57  49  74 S7        30.24F
SISSETON         N/A     65  49  56 W15       30.20S
$$

SDZ017-020-022-023-036>040-048>070-221600-
SOUTHEAST SOUTH DAKOTA

CITY           SKY/WX    TMP DP  RH WIND       PRES   REMARKS
SIOUX FALLS    MOSUNNY   60  49  66 SW6       30.28S
HURON          SUNNY     57  46  66 S7        30.23S
CHAMBERLAIN    SUNNY     60  49  68 SE8       30.20F
MITCHELL       SUNNY     60  48  64 S6        30.25S
YANKTON        SUNNY     54  50  87 CALM      30.28S
$$

ABBREVIATIONS USED IN REMARKS
   TC - TEMPERATURE IN CELSIUS
  WCI - WIND CHILL INDEX
   HX - HEAT INDEX
  VSB - VISIBILITY



USA.gov is the U.S. government's official web portal to all federal, state and local government web resources and services.